Regional Weather Roundup
Issued by NWS Grand Forks, ND

Home | Current Version | Previous Version | Graphics & Text | Print | Product List | Glossary On
Versions: 1 2 3 4 5 6 7 8 9 10 11 12 13 14 15 16 17 18 19 20 21 22 23 24 25 26 27 28 29 30 31 32 33 34 35 36 37 38 39 40 41 42 43 44 45 46 47 48 49 50
000
ASUS43 KFGF 062131
RWRFGF
PRAIRIE TO PINES  WEATHER ROUNDUP
NATIONAL WEATHER SERVICE EASTERN NORTH DAKOTA/GRAND FORKS ND
300 PM CST FRI MAR 06 2015

 **SATELLITE DATA USED TO AUGMENT SKY COVER AT AUTOMATED STATIONS**
 *****  WEATHER ACROSS EASTERN NORTH DAKOTA  *****

CITY           SKY/WX    TMP DP  RH WIND       PRES   REMARKS
GRAND FORKS    PTSUNNY   38  17  42 SW5       30.01F
GRAND FRKS AFB CLOUDY    40  16  37 W10       30.00F
GRAND FRKS NWS   N/A     37 N/A N/A SW12        N/A
DEVILS LAKE    PTSUNNY   34  23  64 SW15      29.96F WCI  24
FARGO          MOSUNNY   39  19  44 NW8       30.04F
WAHPETON ARPT  PTCLDY    34  19  55 W10       30.07S
$$

 ***** WEATHER ACROSS CENTRAL AND WESTERN NORTH DAKOTA  *****

CITY           SKY/WX    TMP DP  RH WIND       PRES   REMARKS
BISMARCK       CLOUDY    43  20  39 SW7       30.01F
MINOT          CLOUDY    37  22  54 S12G20    29.91F
JAMESTOWN      MOSUNNY   37  20  50 W12       30.01F
MINOT AFB      CLOUDY    37  27  68 SW13      29.90F
GARRISON         N/A     39  26  59 SW8       29.95F
WILLISTON      PTSUNNY   47  28  47 W17G24    29.96S
DICKINSON      PTSUNNY   54  20  26 W25G35    29.95F
HETTINGER      MOSUNNY   56  17  21 W26G33    30.00F
$$

 *****  OTHER AIRPORT OBSERVATIONS IN OUR AREA  *****

CITY           SKY/WX    TMP DP  RH WIND       PRES   REMARKS
WALHALLA         N/A     34  23  64 SW9       29.93F
GRAFTON AIRPOR NOT AVBL
VALLEY CITY AR FAIR      37  23  56 W8        30.01F
CANDO          CLOUDY    32  23  69 SW14      29.93F WCI  22
CAVALIER APRT  FAIR      36  19  51 SW10      29.95F
GWINNER        CLEAR     39  23  52 W8        30.06F
ROLLA          FAIR      28  21  74 SW20G25   29.89F WCI  15
 ***** THE ABOVE OBSERVATIONS ARE NON NWS ARE NOT QUALITY
       CONTROLLED AND MAY MIS-REPORT RAIN FOR SNOW...
$$

  *****  WEATHER ACROSS NORTHERN MINNESOTA  *****

CITY           SKY/WX    TMP DP  RH WIND       PRES   REMARKS
FLAG ISLAND    CLOUDY    32  12  43 SW13      29.90F WCI  22
WARROAD        SUNNY     30  18  59 SW15G22   29.95F WCI  19
ROSEAU         SUNNY     30  19  64 SW13      29.96F WCI  20
HALLOCK        PTSUNNY   34  23  64 SW12      29.97F
THF RVR FALLS  SUNNY     30  21  69 SW10      30.00F WCI  21
BAUDETTE       SUNNY     30  12  47 W9        29.94F WCI  22
WASKISH        SUNNY     30  18  59 SW13      29.98S WCI  20
CROOKSTON      MOSUNNY   36  18  48 SW7       30.02F
STEPHEN NDAWN    N/A     34  21  60 SW10        N/A
GREENBUSH NDAW   N/A     30  21  69 SW13        N/A  WCI  20
$$
  *****  WEATHER ACROSS CENTRAL AND WEST MINNESOTA  *****

CITY           SKY/WX    TMP DP  RH WIND       PRES   REMARKS
FOSSTON        SUNNY     34  16  47 W8        30.02F
BEMIDJI        SUNNY     29  14  52 W10       30.00S WCI  20
PARK RAPIDS    SUNNY     32  14  47 W15       29.99F WCI  22
ELBOW LAKE     FAIR      32  21  63 W9        30.06S WCI  25
WADENA         SUNNY     32  16  51 W7        30.02S
DETROIT LAKES  MOSUNNY   32  19  59 NW9       30.03F WCI  24
MOORHEAD       MOSUNNY   37  16  41 W8        30.06S
FERGUS FALLS   MOSUNNY   36  18  48 NW10      30.08F
MORRIS MN      PTSUNNY   34  21  60 W12       30.08R
STAPLES        SUNNY     32  14  47 NW13      30.02S WCI  22
$$
  *****  WEATHER ELSEWHERE ACROSS MINNESOTA  *****

CITY           SKY/WX    TMP DP  RH WIND       PRES   REMARKS
DULUTH         SUNNY     32  10  40 W18G26    29.93S WCI  20
INTRNTL FALLS  SUNNY     29   9  43 W12G21    29.93F WCI  19
ELY            SUNNY     30   7  37 W12G21    29.89S WCI  21
CLOQUET        SUNNY     32   7  34 W17       29.95R WCI  21
WHEATON        MOSUNNY   34  19  55 W7        30.10F
BRAINERD       SUNNY     33  12  41 W12       30.00F WCI  24
HIBBING        SUNNY     32   8  36 NW16      29.93S WCI  21
ALEXANDRIA     MOSUNNY   30  16  56 NW12      30.05S WCI  20
SAINT CLOUD    SUNNY     33  16  49 NW10      30.03S WCI  25
MINNEAPOLIS    MOSUNNY   39  17  41 NW12      30.03S
$$

  *****  WEATHER ACROSS SOUTH DAKOTA  *****

CITY           SKY/WX    TMP DP  RH WIND       PRES   REMARKS
SIOUX FALLS    PTSUNNY   44  24  45 NW8       30.10F
BROOKINGS      NOT AVBL
WATERTOWN      MOSUNNY   33  20  58 NW9       30.08S
HURON          SUNNY     41  21  44 CALM      30.11F
SISSETON         N/A     37  22  54 NW14      30.07F
ABERDEEN       MOSUNNY   43  21  41 W8        30.09F
MITCHELL       MOSUNNY   48  19  31 N6        30.11F
PIERRE         MOSUNNY   54  22  28 SE8       30.05F
MOBRIDGE       CLOUDY    46  20  35 S3        30.02F
RAPID CITY     SUNNY     58  18  21 NW16G23   30.08F
$$

  *****  SOME WEATHER IN NEARBY STATES *****

CITY           SKY/WX    TMP DP  RH WIND       PRES   REMARKS
GLASGOW MT     MOSUNNY   56  24  29 NW16      30.00F
GREAT FALLS MT MOSUNNY   59  18  20 W18G24    30.15S
CHEYENNE WY    SUNNY     48  16  27 W15G25    30.23F
SCOTTSBLUFF NE SUNNY     56  16  20 W18G25    30.20F
OMAHA NE       MOSUNNY   62  16  16 W15G25    30.11F
DES MOINES IA  PTSUNNY   53  21  28 W15       30.13F
DAVENPORT IA   SUNNY     34  21  59 SW12      30.19F
CHICAGO IL     MOSUNNY   27  12  53 SW18G26   30.21S WCI  14
EAU CLAIRE WI  SUNNY     31  15  52 W14       30.02S WCI  21
LA CROSSE WI   SUNNY     34  19  54 SW14      30.06S WCI  25
$$

  *****  SOME NATIONAL WEATHER *****

CITY           SKY/WX    TMP DP  RH WIND       PRES   REMARKS
LA GUARDIA NY  MOSUNNY   27   2  34 CALM      30.44F
RALEIGH NC     MOSUNNY   36  11  35 NE6       30.42F
ATLANTA GA     MOSUNNY   50  30  46 NW8       30.37F
NEW ORLEANS LA CLOUDY    51  18  27 N13       30.42F
OKLAHOMA CITY  SUNNY     56  25  30 SW15G22   30.38F
ALBUQUERQUE NM SUNNY     56  12  17 CALM      30.32F
SALT LAKE CITY MOSUNNY   54  25  32 NW8       30.41F
LOS ANGELES CA SUNNY     79  14   8 W8        30.05F
BOISE ID       SUNNY     56  22  26 VRB5      30.40F
SEATTLE WA     PTSUNNY   56  39  53 CALM      30.41F
$$

*** WEATHER ACROSS MANITOBA...SASKATCHEWAN AND ONTARIO ***
                ***ONTARIO***

CITY           SKY/WX    TMP DP  RH WIND       PRES   REMARKS
GERALDTON      PTSUNNY   23   7  50 W10G21    29.73S WCI  12
THUNDER BAY    MOSUNNY   30  12  47 W15       29.84R WCI  19
SIOUX LOOKOUT  MOSUNNY   27   7  43 W13G22    29.82F WCI  16
TORONTO        PTSUNNY   21   5  49 SW17G26   30.29F WCI   7
BIG TROUT LK   PTSUNNY    9  -4  56 NW13G18   29.76R WCI  -7
PICKLE LAKE    PTSUNNY   23   3  42 W17G26    29.71S WCI   9
DRYDEN         SUNNY     28  10  47 W16       29.84F WCI  17
KENORA         PTSUNNY   30  10  43 SW8G17    29.88F WCI  23
$$
                *** MANITOBA***

CITY           SKY/WX    TMP DP  RH WIND       PRES   REMARKS
BRANDON        LGT SNOW  30  25  80 W18G26    29.86F WCI  18
DAUPHIN        CLOUDY    36  28  75 W24       29.77F
ISLAND LAKE    PTSUNNY   14   0  52 W9        29.79F WCI   2
PILOT MOUND      N/A     30  21  69 SW22        N/A  WCI  17
THE PAS        CLOUDY    28  21  74 SE3       29.73S
THOMPSON       PTSUNNY   12  -4  48 N13       29.83R WCI  -3
WINNIPEG       PTSUNNY   32  21  64 SW17      29.91F WCI  21
LYNN LAKE      CLOUDY    12   5  73 N9        29.83R WCI   0
CHURCHILL      CRYSTALS  -8 -15  71 NW12      29.88R WCI -27
GILLAM         MOSUNNY    1 -11  55 W7        29.85R WCI -11
$$
                ***SASKATCHEWAN***

CITY           SKY/WX    TMP DP  RH WIND       PRES   REMARKS
ESTEVAN        MOSUNNY   39  28  65 W15G22    29.87F
KINDERSLEY     MOSUNNY   39  30  70 NW16G26   29.99R
LLOYDMINSTER   CLOUDY    37  32  81 NW15G22   29.98R
PRINCE ALBERT  MOSUNNY   39  30  70 NW16G25   29.81R
REGINA         PTSUNNY   37  32  81 W20       29.86S
YORKTON        LGT RAIN  32  30  93 SW9       29.78F WCI  24
N. BATTLEFORD  MOSUNNY   39  34  81 NW14G20   29.96R
LA RONGE       MOSUNNY   39  23  52 NW20G29   29.80R
SASKATOON      MOSUNNY   37  32  81 NW21      29.89R
SWIFT CURRENT  PTSUNNY   39  30  70 NW17G23   29.98R
$$
NOTE: THESE ARE AUTOMATED STATIONS WITH LIMITED QUALITY CONTROL
      "FAIR" INDICATES FEW OR NO CLOUDS BELOW 12,000 FEET WITH NO
      SIGNIFICANT WEATHER AND/OR OBSTRUCTIONS TO VISIBILITY.
      SKY/WX - SKY CONDITION AND SIGNIFICANT WEATHER.
      TMP - AIR TEMPERATURE.    DP   - DEWPOINT TEMPERATURE.
      RH  - RELATIVE HUMIDITY.  PRES - PRESSURE.
      HX  - HEAT INDEX.         WCI  - WIND CHILL INDEX.
$



USA.gov is the U.S. government's official web portal to all federal, state and local government web resources and services.